Location: ?????
(31.8092°N, 35.2590°E)
Time: 19:22:49
(UTC+00:00)

Nadezhda 4 Rocket - Pass Details

Date: 20 June 2021
Orbit: 950 x 992 km, 82.9° (Epoch: 23 July)

Event Time Altitude Azimuth Distance (km) Brightness Sun altitude
Exits shadow 23:10:12 49° 305° (NW) 1,210 4.4 -30.8°
Drops below altitude 10° 23:15:22 10° 355° (N) 2,682 7.0 -30.3°
Sets 23:17:56 0° 360° (N) 3,628 7.9 -30.1°
